This is the latest recevied weather packets stored in our database for station/object EA3IK-1. If no packets are shown the sender has not sent any weather packets the latest 10 day(s).
| Time | Temp. | Humidity | Pressure | Rain* | Wind** | Luminosity | Snow |
|---|---|---|---|---|---|---|---|
| 1777097845 | 12.78° C | 61% | 1018.1 hPa | 0 mm | - | - | - |
| 1777096944 | 12.78° C | 60% | 1018.1 hPa | 0 mm | - | - | - |
| 1777096043 | 11.67° C | 60% | 1018 hPa | 0 mm | - | - | - |
| 1777095143 | 10.56° C | 62% | 1017.9 hPa | 0 mm | - | - | - |
| 1777094242 | 10.56° C | 65% | 1017.7 hPa | 0 mm | - | - | - |
| 1777093341 | 11.11° C | 64% | 1017.6 hPa | 0 mm | - | - | - |
| 1777092440 | 11.11° C | 65% | 1017.6 hPa | 0 mm | - | - | - |
| 1777091539 | 11.11° C | 65% | 1017.7 hPa | 0 mm | - | - | - |
| 1777090638 | 11.11° C | 65% | 1017.6 hPa | 0 mm | - | - | - |
| 1777089738 | 11.67° C | 65% | 1017.6 hPa | 0 mm | - | - | - |
| 1777088837 | 11.67° C | 67% | 1017.6 hPa | 0 mm | - | - | - |
| 1777087936 | 11.67° C | 66% | 1017.5 hPa | 0 mm | - | - | - |
| 1777087035 | 11.67° C | 67% | 1017.5 hPa | 0 mm | - | - | - |
| 1777086134 | 12.22° C | 67% | 1017.3 hPa | 0 mm | - | - | - |
| 1777085233 | 12.22° C | 67% | 1017.4 hPa | 0 mm | - | - | - |
| 1777084332 | 12.22° C | 68% | 1017.4 hPa | 0 mm | - | - | - |
| 1777083431 | 12.78° C | 67% | 1017.3 hPa | 0 mm | - | - | - |
| 1777082531 | 12.78° C | 66% | 1017.3 hPa | 0 mm | - | - | - |
| 1777081630 | 12.22° C | 67% | 1017.4 hPa | 0 mm | - | - | - |
| 1777080729 | 12.22° C | 67% | 1017.5 hPa | 0 mm | - | - | - |
| 1777079828 | 12.22° C | 68% | 1017.7 hPa | 0 mm | - | - | - |
| 1777078927 | 12.22° C | 68% | 1017.7 hPa | 0 mm | - | - | - |
| 1777078026 | 11.67° C | 68% | 1017.8 hPa | 0 mm | - | - | - |
| 1777077126 | 11.67° C | 68% | 1017.9 hPa | 0 mm | - | - | - |
| 1777076225 | 12.22° C | 68% | 1018.2 hPa | 0 mm | - | - | - |
* Rain latest hour (hover to see other rain measurements)
** Current wind speed in m/s (hover to see current wind gust speed)